This demonstration page uses our WeatherBlox Daily Observations layout. Learn more.

Left ArrowRight Arrow

47.50024, -111.30081

Hourly Observations for March 4, 2015

Temp ( °F °C ) Dew Point ( °F °C ) Humidity (%) Winds ( mph kmh ) Pressure ( in mb ) Visibility ( mi km ) Precip ( " mm )
12:53 am 00:53 Cloudy 10 -12.2 3 -16.1 73 73 SW 5 7 30.40 1030 10 16 0.00 0.00
1:53 am 01:53 Cloudy 10 -12.2 2 -16.7 69 69 SW 6 9 30.40 1030 10 16 0.00 0.00
2:53 am 02:53 Cloudy 7 -13.9 1 -17.2 76 76 SSW 7 11 30.40 1029 10 16 0.00 0.00
3:53 am 03:53 Clear 5 -15 -2 -18.9 72 72 SSW 9 15 30.38 1029 10 16 0.00 0.00
4:53 am 04:53 Clear 4 -15.6 -2 -18.9 76 76 SW 13 20 30.37 1028 10 16 0.00 0.00
5:53 am 05:53 Clear 4 -15.6 -3 -19.4 73 73 SSW 13 20 30.36 1028 10 16 0.00 0.00
6:53 am 06:53 Clear 2 -16.7 -4 -20 76 76 SW 9 15 30.38 1029 10 16 0.00 0.00
7:53 am 07:53 Sunny 8 -13.3 -1 -18.3 66 66 S 6 9 30.37 1028 10 16 0.00 0.00
8:53 am 08:53 Sunny 13 -10.6 2 -16.7 61 61 SW 10 17 30.37 1028 10 16 0.00 0.00
9:53 am 09:53 Sunny 19 -7.2 7 -13.9 59 59 SW 12 19 30.33 1027 10 16 0.00 0.00
10:53 am 10:53 Sunny 24 -4.4 10 -12.2 55 55 SW 15 24 30.30 1026 10 16 0.00 0.00
11:53 am 11:53 Sunny 28 -2 12 -11 51 51 SW 16 26 30.24 1024 10 16 0.00 0.00
12:53 pm 12:53 Sunny 32 0 10 -12.2 40 40 SSW 16 26 30.25 1025 10 16 0.00 0.00
1:53 pm 13:53 Sunny 35 1.7 10 -12.2 35 35 SW 16 26 30.23 1024 10 16 0.00 0.00
2:53 pm 14:53 Sunny 36 2.2 10 -12.2 34 34 SW 17 28 30.20 1023 10 16 0.00 0.00
3:53 pm 15:53 Sunny 36 2.2 9 -12.8 32 32 SW 21 33 30.19 1023 10 16 0.00 0.00
4:53 pm 16:53 Sunny 35 1.7 10 -12.2 35 35 SW 21 33 30.17 1022 10 16 0.00 0.00
5:53 pm 17:53 Sunny 33 0.6 10 -12.2 38 38 SW 20 31 30.17 1022 10 16 0.00 0.00
6:53 pm 18:53 Clear 30 -1.1 11 -11.7 45 45 SW 14 22 30.19 1023 10 16 0.00 0.00
7:53 pm 19:53 Clear 28 -2.2 12 -11.1 51 51 SW 14 22 30.19 1023 10 16 0.00 0.00
8:53 pm 20:53 Clear 28 -2.2 13 -10.6 53 53 SW 13 20 30.19 1022 10 16 0.00 0.00
9:53 pm 21:53 Clear 26 -3.3 13 -10.6 57 57 SW 12 19 30.18 1022 10 16 0.00 0.00
10:53 pm 22:53 Clear 26 -3.3 14 -10 60 60 SW 10 17 30.18 1022 10 16 0.00 0.00
11:53 pm 23:53 Clear 26 -3.3 14 -10 60 60 SW 12 19 30.18 1022 10 16 0.00 0.00

Powered by AerisWeather